Stations météo

réclame
Mon MeteoGroup
Lerwick, Grande-Bretagne (3005): Température de l'air & dewpoint: 13.07.2019 20:00:00 - 19.07.2019 20:00:00 (BST)Lerwick, Grande-Bretagne (3005): Température de l'air -20cm & Température de l'air -100cm: 13.07.2019 20:00:00 - 19.07.2019 20:00:00 (BST)Lerwick, Grande-Bretagne (3005): Vitesse du vent & gusts: 13.07.2019 20:00:00 - 19.07.2019 20:00:00 (BST)Lerwick, Grande-Bretagne (3005): Direction du vent: 13.07.2019 20:00:00 - 19.07.2019 20:00:00 (BST)Lerwick, Grande-Bretagne (3005): reduced air pressure: 13.07.2019 20:00:00 - 19.07.2019 20:00:00 (BST)Lerwick, Grande-Bretagne (3005): visibility: 13.07.2019 20:00:00 - 19.07.2019 20:00:00 (BST)Lerwick, Grande-Bretagne (3005): Ensoleillement: 13.07.2019 20:00:00 - 19.07.2019 20:00:00 (BST)Lerwick, Grande-Bretagne (3005): Quantités de précipitations: 13.07.2019 20:00:00 - 19.07.2019 20:00:00 (BST)
Date & Time tt [°C] td [°C] tt -20cm [°C] tt -100cm [°C] ff [km/h] ff [knt] fx [km/h] fx [knt] dd ppp [hPa] vv [km] sd [min] rr [mm]
19.07.2019 20:00:00 13,0 12,4 - - 15 8 - - S 1005,3 10 6 -
19.07.2019 19:00:00 13,9 12,5 - - 18 10 - - S 1005,2 22 60 0,0
19.07.2019 18:00:00 14,5 12,5 - - 21 11 - - S 1005,3 30 60 0,0
19.07.2019 17:00:00 14,8 12,6 - - 22 12 - - S 1005,3 30 60 0,0
19.07.2019 16:00:00 14,8 12,4 - - 22 12 - - S 1005,5 30 54 0,0
19.07.2019 15:00:00 14,9 12,6 - - 16 9 - - SSE 1005,3 35 60 0,0
19.07.2019 14:00:00 15,5 11,9 - - 22 12 - - S 1005,0 50 24 0,0
19.07.2019 13:00:00 15,2 12,3 - - 24 13 - - S 1004,9 50 36 0,0
19.07.2019 12:00:00 14,7 12,3 - - 28 15 - - S 1004,6 35 54 0,0
19.07.2019 11:00:00 14,7 12,5 - - 26 14 - - S 1004,3 40 60 0,0
19.07.2019 10:00:00 13,5 12,3 13,7 10,7 22 12 - - S 1004,2 40 54 0,0
19.07.2019 09:00:00 13,5 12,6 - - 9 5 - - SE 1004,0 25 54 0,0
19.07.2019 08:00:00 11,9 11,6 - - 11 6 - - S 1003,7 2,5 0 0,0
19.07.2019 07:00:00 12,2 11,5 - - 4 2 - - SSE 1003,5 15 12 0,0
19.07.2019 06:00:00 11,7 11,5 - - 5 3 - - SW 1003,4 20 0 0,0
19.07.2019 05:00:00 11,3 11,3 - - 5 3 - - SW 1003,1 10 0 0,0
19.07.2019 04:00:00 11,5 11,4 - - 8 4 - - S 1002,9 2,5 0 0,0
19.07.2019 03:00:00 11,9 11,8 - - 9 5 - - SSW 1002,8 2,5 0 0,0
19.07.2019 02:00:00 12,0 11,9 - - 11 6 - - SSW 1002,6 1,5 0 0,0
19.07.2019 01:00:00 12,2 12,1 - - 13 7 - - S 1002,6 0,6 - 0,0
19.07.2019 00:00:00 11,9 11,7 - - 11 6 - - S 1002,5 10 0 0,0
18.07.2019 23:00:00 11,8 11,6 - - 13 7 - - S 1002,3 12 0 0,0
18.07.2019 22:00:00 11,7 11,4 - - 9 5 - - S 1002,1 12 0 0,0
18.07.2019 21:00:00 12,2 11,7 - - 15 8 - - S 1001,9 19 12 0,0
18.07.2019 20:00:00 12,9 11,5 - - 18 10 - - S 1001,4 40 60 0,0
18.07.2019 19:00:00 13,6 11,7 - - 18 10 - - S 1001,4 50 48 0,0
18.07.2019 18:00:00 13,1 11,5 - - 16 9 - - S 1001,3 35 30 0,0
18.07.2019 17:00:00 15,0 12,3 - - 18 10 - - S 1001,1 45 54 0,0
18.07.2019 16:00:00 15,2 11,8 - - 9 5 - - S 1001,0 65 18 0,0
18.07.2019 15:00:00 14,7 12,1 - - 8 4 - - SSW 1001,0 35 6 0,0
18.07.2019 14:00:00 14,4 12,2 - - 13 7 - - W 1000,8 40 6 0,0
18.07.2019 13:00:00 14,4 12,1 - - 13 7 - - WSW 1000,9 40 0 0,0
18.07.2019 12:00:00 15,0 12,5 - - 16 9 - - WSW 1000,7 25 6 0,0
18.07.2019 11:00:00 13,7 11,7 - - 13 7 - - W 1000,7 50 6 0,0
18.07.2019 10:00:00 13,1 12,3 13,2 10,7 15 8 - - WSW 1000,4 50 0 0,0
18.07.2019 09:00:00 12,0 11,8 - - 15 8 - - W 1000,5 26 0 0,8
18.07.2019 08:00:00 11,7 11,5 - - 11 6 - - W 1000,4 4,8 0 0,4
18.07.2019 07:00:00 11,7 11,4 - - 21 11 - - W 1000,4 28 0 0,0
18.07.2019 06:00:00 11,4 11,2 - - 18 10 - - W 1000,5 26 0 0,2
18.07.2019 05:00:00 11,7 11,7 - - 15 8 - - WSW 1000,5 2,9 0 0,4
18.07.2019 04:00:00 12,1 12,1 - - 13 7 - - S 1000,9 0,1 0 2,4
18.07.2019 03:00:00 12,2 12,2 - - 18 10 - - S 1001,6 0,1 0 1,6
18.07.2019 02:00:00 12,2 12,2 - - 21 11 - - S 1002,2 - 0 0,8
18.07.2019 01:00:00 12,4 12,3 - - 16 9 - - SSW 1002,6 0,1 - 0,2
18.07.2019 00:00:00 12,2 12,2 - - 16 9 - - SSW 1003,0 1,8 0 0,0
17.07.2019 23:00:00 12,4 12,3 - - 16 9 - - S 1003,4 1,5 0 0,2
17.07.2019 22:00:00 12,4 12,4 - - 16 9 - - S 1003,8 1,8 0 0,0
17.07.2019 21:00:00 12,4 12,4 - - 16 9 - - S 1004,1 0,2 0 0,0
17.07.2019 20:00:00 12,4 12,3 - - 13 7 - - S 1004,5 0,1 0 0,8
17.07.2019 19:00:00 12,5 12,4 - - 16 9 - - S 1005,0 0,3 0 1,2
17.07.2019 18:00:00 12,8 12,7 - - 16 9 - - S 1005,5 2,7 0 0,8
17.07.2019 17:00:00 12,5 12,5 - - 9 5 - - SSW 1006,0 2,5 0 0,0
17.07.2019 16:00:00 12,5 12,5 - - 13 7 - - S 1006,6 0,1 0 0,0
17.07.2019 15:00:00 12,6 12,6 - - 16 9 - - S 1007,1 - 0 0,0
17.07.2019 14:00:00 12,7 12,7 - - 15 8 - - SSE 1007,7 - 0 0,0
17.07.2019 13:00:00 12,5 12,5 - - 18 10 - - SSE 1008,4 - 0 0,0
17.07.2019 12:00:00 12,4 12,4 - - 22 12 - - SSE 1008,8 - 0 0,0
17.07.2019 11:00:00 12,1 12,1 - - 16 9 - - SSE 1009,7 - 0 0,0
17.07.2019 10:00:00 12,2 12,2 13,4 10,7 15 8 - - SSE 1010,2 - 0 0,0
17.07.2019 09:00:00 12,1 12,1 - - 15 8 - - SE 1010,7 - 0 0,0
17.07.2019 08:00:00 12,0 11,9 - - 13 7 - - SSE 1011,1 0,1 0 0,0
17.07.2019 07:00:00 11,6 11,5 - - 15 8 - - S 1011,6 5 0 0,0
17.07.2019 06:00:00 11,4 11,3 - - 11 6 - - SSE 1011,8 3,0 0 0,0
17.07.2019 05:00:00 11,4 11,4 - - 13 7 - - S 1012,2 0,1 0 0,0
17.07.2019 04:00:00 11,5 11,5 - - 11 6 - - S 1012,6 0,3 0 0,0
17.07.2019 03:00:00 11,7 11,7 - - 13 7 - - S 1013,1 0,1 0 0,0
17.07.2019 02:00:00 11,7 11,6 - - 15 8 - - S 1013,7 6 0 0,0
17.07.2019 01:00:00 11,6 11,6 - - 15 8 - - S 1013,9 4,1 - 0,0
17.07.2019 00:00:00 11,7 11,7 - - 15 8 - - S 1014,3 0,2 0 0,0
16.07.2019 23:00:00 11,4 11,4 - - 13 7 - - SSW 1014,6 - 0 0,0
16.07.2019 22:00:00 12,0 12,0 - - 13 7 - - S 1014,8 0,1 0 0,0
16.07.2019 21:00:00 12,2 12,1 - - 11 6 - - S 1014,8 0,2 0 0,0
16.07.2019 20:00:00 12,2 12,2 - - 9 5 - - S 1014,9 0,1 0 0,0
16.07.2019 19:00:00 12,2 12,2 - - 9 5 - - SSE 1015,2 - 0 0,0
16.07.2019 18:00:00 12,4 12,4 - - 11 6 - - S 1015,5 0,2 0 0,0
16.07.2019 17:00:00 12,4 12,3 - - 13 7 - - S 1015,7 0,1 0 0,4
16.07.2019 16:00:00 12,4 12,4 - - 13 7 - - S 1016,0 0,2 0 0,0
16.07.2019 15:00:00 12,5 12,4 - - 13 7 - - S 1016,1 0,8 0 0,0
16.07.2019 14:00:00 12,0 12,0 - - 15 8 - - S 1016,2 0,2 0 0,0
16.07.2019 13:00:00 11,8 11,8 - - 13 7 - - S 1016,5 0,2 0 0,0
16.07.2019 12:00:00 11,9 11,9 - - 15 8 - - S 1016,5 8 0 0,0
16.07.2019 11:00:00 11,6 11,5 - - 13 7 - - SSE 1016,6 0,1 0 0,4
16.07.2019 10:00:00 11,4 11,4 13,4 10,5 13 7 - - SSE 1017,2 0,1 0 -
16.07.2019 09:00:00 11,3 11,2 - - 13 7 - - SSE 1017,3 0,1 0 0,2
16.07.2019 08:00:00 11,4 11,4 - - 11 6 - - SSE 1017,4 0,2 0 0,0
16.07.2019 07:00:00 11,4 11,4 - - 11 6 - - SE 1017,5 - 0 0,0
16.07.2019 06:00:00 11,5 11,5 - - 8 4 - - SE 1017,7 - 0 0,0
16.07.2019 05:00:00 11,4 11,4 - - 5 3 - - SSE 1017,8 - 0 0,0
16.07.2019 04:00:00 11,4 11,3 - - 8 4 - - SSE 1018,0 - 0 0,0
16.07.2019 03:00:00 11,6 11,5 - - 8 4 - - SSW 1018,6 - 0 0,0
16.07.2019 02:00:00 11,9 11,7 - - 4 2 - - ENE 1019,0 6 0 0,0
16.07.2019 01:00:00 11,8 11,6 - - 2 1 - - SSE 1019,2 0,2 - 0,0
16.07.2019 00:00:00 11,8 11,5 - - 8 4 - - E 1019,1 0,1 0 0,0
15.07.2019 23:00:00 12,3 11,7 - - 9 5 - - ENE 1019,3 14 0 0,0
15.07.2019 22:00:00 12,4 11,6 - - 8 4 - - NE 1019,3 18 6 0,0
15.07.2019 21:00:00 13,2 11,9 - - 5 3 - - ENE 1019,1 21 6 0,0
15.07.2019 20:00:00 14,0 12,1 - - 5 3 - - E 1019,5 16 0 0,0
15.07.2019 19:00:00 15,4 12,4 - - 16 9 - - NNW 1019,2 30 6 0,0
15.07.2019 18:00:00 15,9 12,7 - - 16 9 - - NW 1019,4 45 36 0,0
15.07.2019 17:00:00 15,3 13,2 - - 26 14 - - WNW 1019,4 40 30 0,0
15.07.2019 16:00:00 16,2 13,3 - - 21 11 - - WNW 1019,7 45 42 0,0
15.07.2019 15:00:00 14,4 13,1 - - 24 13 - - NW 1019,9 40 0 0,0
15.07.2019 14:00:00 14,0 13,3 - - 28 15 - - NW 1019,7 35 0 0,0
15.07.2019 13:00:00 13,3 13,0 - - 16 9 - - NW 1020,0 27 0 0,0
15.07.2019 12:00:00 13,1 13,0 - - 16 9 - - NW 1020,1 1,8 0 0,0
15.07.2019 11:00:00 12,6 12,5 - - 29 16 - - WNW 1019,9 0,5 0 0,0
15.07.2019 10:00:00 12,5 12,4 13,0 10,5 29 16 - - WNW 1020,1 0,6 0 0,0
15.07.2019 09:00:00 11,9 11,8 - - 31 17 - - WNW 1020,3 1,1 0 0,2
15.07.2019 08:00:00 11,7 11,6 - - 28 15 - - WNW 1020,4 0,5 0 0,0
15.07.2019 07:00:00 11,7 11,6 - - 35 19 46 25 WNW 1020,2 0,2 0 0,2
15.07.2019 06:00:00 11,4 11,4 - - 31 17 - - WNW 1020,8 0,1 0 0,0
15.07.2019 05:00:00 11,1 11,0 - - 35 19 50 27 W 1020,8 0,1 0 0,0
15.07.2019 04:00:00 10,9 10,8 - - 29 16 - - W 1021,1 1,0 0 0,0
15.07.2019 03:00:00 10,8 10,7 - - 22 12 - - W 1022,1 0,5 0 0,0
15.07.2019 02:00:00 10,8 10,2 - - 21 11 - - WNW 1022,6 13 0 0,0
15.07.2019 01:00:00 10,8 10,1 - - 15 8 - - WNW 1022,7 28 - 0,0
15.07.2019 00:00:00 11,1 9,0 - - 9 5 - - NW 1023,0 65 0 0,0
14.07.2019 23:00:00 11,0 9,0 - - 13 7 - - NW 1023,1 60 0 0,0
14.07.2019 22:00:00 11,0 8,4 - - 11 6 - - NNW 1023,4 60 0 0,0
14.07.2019 21:00:00 11,2 7,5 - - 15 8 - - NNW 1023,5 75 0 0,0
14.07.2019 20:00:00 11,2 8,4 - - 16 9 - - NW 1023,7 65 0 0,0
14.07.2019 19:00:00 12,0 9,2 - - 11 6 - - NW 1023,7 75 0 0,0
14.07.2019 18:00:00 11,8 9,4 - - 16 9 - - NNW 1024,0 75 0 0,0
14.07.2019 17:00:00 12,4 10,3 - - 16 9 - - NW 1024,0 70 0 0,0
14.07.2019 16:00:00 13,4 10,5 - - 13 7 - - WNW 1024,1 75 0 0,0
14.07.2019 15:00:00 13,3 10,8 - - 15 8 - - W 1024,2 75 0 0,0
14.07.2019 14:00:00 13,0 10,6 - - 15 8 - - WNW 1024,0 75 0 0,0
14.07.2019 13:00:00 13,4 9,5 - - 15 8 - - NNW 1023,9 75 0 0,0
14.07.2019 12:00:00 12,8 9,6 - - 16 9 - - WNW 1023,9 75 0 0,0
14.07.2019 11:00:00 12,4 9,6 - - 15 8 - - NW 1024,1 75 0 0,0
14.07.2019 10:00:00 11,3 10,0 13,0 10,4 13 7 - - NW 1024,0 2,9 0 0,0
14.07.2019 09:00:00 10,8 9,6 - - 11 6 - - NNW 1024,0 3,1 0 0,0
14.07.2019 08:00:00 10,5 8,5 - - 13 7 - - NW 1023,7 75 0 0,0
14.07.2019 07:00:00 10,3 7,7 - - 15 8 - - NNW 1023,7 75 0 0,0
14.07.2019 06:00:00 9,8 6,8 - - 11 6 - - NNW 1023,4 75 0 0,0
14.07.2019 05:00:00 9,6 7,1 - - 15 8 - - N 1023,5 75 0 0,0
14.07.2019 04:00:00 9,5 6,7 - - 13 7 - - N 1023,5 75 0 0,0
14.07.2019 03:00:00 9,6 6,8 - - 13 7 - - N 1023,6 75 0 0,0
14.07.2019 02:00:00 10,0 6,9 - - 15 8 - - NNW 1023,7 75 0 0,0
14.07.2019 01:00:00 10,1 7,8 - - 9 5 - - NNW 1023,2 75 - 0,0
14.07.2019 00:00:00 10,3 7,3 - - 9 5 - - NNW 1023,0 75 0 0,0
13.07.2019 23:00:00 10,5 7,7 - - 11 6 - - NNW 1023,1 75 0 0,0
13.07.2019 22:00:00 10,7 6,8 - - 16 9 - - NNW 1022,9 75 0 0,0
13.07.2019 21:00:00 11,0 7,0 - - 16 9 - - N 1022,5 75 0 0,0
13.07.2019 20:00:00 11,3 6,9 - - 18 10 - - NNW 1022,2 75 0 0,0

tt = Température de l'air
td = dewpoint
tt -20cm = Température de l'air -20cm
tt -100cm = Température de l'air -100cm
ff = Vitesse du vent
fx = gusts
dd = Direction du vent
ppp = reduced air pressure
vv = visibility
sd = Ensoleillement
rr = Quantités de précipitations

stations d'obs. à proximité